When you browse on this site, cookies collect data to enhance your experience and personalize the content and advertising you see.
Visit our Privacy Policy to learn more. By continuing to use the site, you agree to this use of cookies and data.
  • In Czech Republic
  • List of Countries
  • For 7 days
  • Water Temperature
  • Satellite Maps
  • Weather Map
  • Weather Widgets
  • user-avatar
    Login

    Hourly Weather Nikolskoe

    Today, 19 February, Tuesday

    Time Temperature Precipitation Wind Pressure Humidity
    00:00 -10°C° 0 mm 2 mps 753 mmHg 91%
    01:00 -10°C° 0 mm 2 mps 753 mmHg 91%
    02:00 -9°C° 0 mm 2 mps 752 mmHg 92%
    03:00 -10°C° 0 mm 3 mps 752 mmHg 90%
    04:00 -9°C° 0 mm 3 mps 751 mmHg 88%
    05:00 -10°C° 0 mm 4 mps 750 mmHg 87%
    06:00 -9°C° 0 mm 4 mps 750 mmHg 84%
    07:00 -10°C° 0 mm 5 mps 749 mmHg 81%
    08:00 -8°C° 0 mm 5 mps 748 mmHg 78%
    09:00 -6°C° 0 mm 5 mps 748 mmHg 76%
    10:00 -5°C° 0 mm 5 mps 747 mmHg 74%
    11:00 -2°C° 0 mm 5 mps 747 mmHg 72%
    12:00 -2°C° 0 mm 5 mps 746 mmHg 75%
    13:00 -1°C° 0 mm 4 mps 746 mmHg 79%
    14:00 -1°C° 0 mm 4 mps 746 mmHg 82%
    15:00 -1°C° 0 mm 4 mps 745 mmHg 83%
    16:00 -1°C° 0 mm 3 mps 745 mmHg 84%
    17:00 -2°C° 0 mm 3 mps 744 mmHg 86%
    18:00 -2°C° 0 mm 3 mps 744 mmHg 86%
    19:00 -3°C° 0 mm 4 mps 743 mmHg 86%
    20:00 -4°C° 0 mm 4 mps 743 mmHg 86%
    21:00 -3°C° 0 mm 4 mps 742 mmHg 87%
    22:00 -3°C° 0 mm 4 mps 741 mmHg 88%
    23:00 -2°C° 0 mm 5 mps 740 mmHg 89%

    Tomorrow, 20 February, Wednesday

    Time Temperature Precipitation Wind Pressure Humidity
    00:00 -2°C° 0 mm 5 mps 740 mmHg 89%
    01:00 -2°C° 0 mm 5 mps 739 mmHg 88%
    02:00 -1°C° 0 mm 5 mps 738 mmHg 88%
    03:00 -1°C° 0 mm 5 mps 738 mmHg 89%
    04:00 -1°C° 0 mm 4 mps 737 mmHg 90%
    05:00 -1°C° 0 mm 4 mps 736 mmHg 90%
    06:00 -1°C° 0.2 mm 4 mps 736 mmHg 91%
    07:00 0°C° 0.2 mm 4 mps 736 mmHg 91%
    08:00 0°C° 0.2 mm 5 mps 736 mmHg 92%
    09:00 0°C° 0 mm 4 mps 736 mmHg 92%
    10:00 0°C° 0 mm 4 mps 736 mmHg 93%
    11:00 0°C° 0 mm 4 mps 736 mmHg 93%
    12:00 0°C° 0 mm 4 mps 736 mmHg 93%
    13:00 0°C° 0 mm 4 mps 736 mmHg 93%
    14:00 0°C° 0 mm 4 mps 736 mmHg 92%
    15:00 0°C° 0.1 mm 4 mps 736 mmHg 91%
    16:00 0°C° 0.1 mm 4 mps 735 mmHg 91%
    17:00 0°C° 0.1 mm 4 mps 735 mmHg 90%
    18:00 -1°C° 0.1 mm 4 mps 735 mmHg 90%
    19:00 -1°C° 0.1 mm 4 mps 735 mmHg 90%
    20:00 -1°C° 0.1 mm 4 mps 734 mmHg 90%
    21:00 -1°C° 0.1 mm 4 mps 734 mmHg 90%
    22:00 0°C° 0.1 mm 3 mps 734 mmHg 91%
    23:00 0°C° 0.1 mm 3 mps 734 mmHg 91%

    Day after tomorrow, 21 February, Thursday

    Time Temperature Precipitation Wind Pressure Humidity
    00:00 0°C° 0.1 mm 3 mps 734 mmHg 91%
    01:00 0°C° 0.1 mm 3 mps 734 mmHg 91%
    02:00 0°C° 0.1 mm 3 mps 734 mmHg 91%
    03:00 -1°C° 0.4 mm 3 mps 734 mmHg 92%
    04:00 -2°C° 0.4 mm 4 mps 734 mmHg 92%
    05:00 -2°C° 0.4 mm 4 mps 734 mmHg 93%
    06:00 -3°C° 0.3 mm 4 mps 734 mmHg 91%
    07:00 -5°C° 0.3 mm 5 mps 735 mmHg 89%
    08:00 -6°C° 0.3 mm 6 mps 735 mmHg 87%
    09:00 -6°C° 0.5 mm 6 mps 736 mmHg 87%
    10:00 -6°C° 0.5 mm 5 mps 736 mmHg 88%
    11:00 -6°C° 0.5 mm 5 mps 737 mmHg 88%
    12:00 -6°C° 0.4 mm 6 mps 738 mmHg 88%
    13:00 -6°C° 0.4 mm 6 mps 739 mmHg 87%
    14:00 -7°C° 0.4 mm 7 mps 739 mmHg 87%
    15:00 -8°C° 0.2 mm 7 mps 740 mmHg 85%
    16:00 -9°C° 0.2 mm 7 mps 741 mmHg 83%
    17:00 -10°C° 0.2 mm 6 mps 743 mmHg 81%
    18:00 -11°C° 0.1 mm 6 mps 744 mmHg 81%
    19:00 -11°C° 0.1 mm 6 mps 745 mmHg 81%
    20:00 -11°C° 0.1 mm 6 mps 746 mmHg 81%
    21:00 -12°C° 0.1 mm 6 mps 746 mmHg 80%
    22:00 -14°C° 0.1 mm 6 mps 747 mmHg 79%
    23:00 -14°C° 0.1 mm 6 mps 748 mmHg 78%

    22 February, Friday

    Time Temperature Precipitation Wind Pressure Humidity
    00:00 -14°C° 0 mm 6 mps 748 mmHg 78%
    01:00 -15°C° 0 mm 6 mps 749 mmHg 78%
    02:00 -15°C° 0 mm 6 mps 750 mmHg 78%
    03:00 -16°C° 0 mm 6 mps 750 mmHg 78%
    04:00 -16°C° 0 mm 6 mps 751 mmHg 78%
    05:00 -16°C° 0 mm 6 mps 751 mmHg 79%
    06:00 -16°C° 0 mm 6 mps 752 mmHg 78%
    07:00 -16°C° 0 mm 6 mps 752 mmHg 77%
    08:00 -16°C° 0 mm 6 mps 753 mmHg 76%
    09:00 -15°C° 0 mm 6 mps 753 mmHg 74%
    10:00 -15°C° 0 mm 6 mps 753 mmHg 72%
    11:00 -14°C° 0 mm 7 mps 753 mmHg 71%
    12:00 -13°C° 0 mm 7 mps 753 mmHg 71%
    13:00 -13°C° 0 mm 7 mps 753 mmHg 71%
    14:00 -13°C° 0 mm 7 mps 753 mmHg 70%
    15:00 -14°C° 0 mm 6 mps 754 mmHg 72%
    16:00 -14°C° 0 mm 6 mps 754 mmHg 74%
    17:00 -15°C° 0 mm 6 mps 755 mmHg 75%
    18:00 -15°C° 0 mm 6 mps 755 mmHg 76%
    19:00 -16°C° 0 mm 6 mps 756 mmHg 77%
    20:00 -15°C° 0 mm 5 mps 757 mmHg 78%
    21:00 -15°C° 0 mm 5 mps 757 mmHg 79%
    22:00 -17°C° 0 mm 5 mps 757 mmHg 80%
    23:00 -17°C° 0 mm 5 mps 758 mmHg 81%

    23 February, Saturday

    Time Temperature Precipitation Wind Pressure Humidity
    00:00 -17°C° 0 mm 5 mps 758 mmHg 82%
    01:00 -16°C° 0 mm 4 mps 759 mmHg 83%
    02:00 -16°C° 0 mm 4 mps 759 mmHg 84%
    03:00 -16°C° 0 mm 4 mps 759 mmHg 84%
    04:00 -16°C° 0 mm 4 mps 759 mmHg 85%
    05:00 -16°C° 0 mm 4 mps 759 mmHg 86%
    06:00 -17°C° 0 mm 4 mps 760 mmHg 87%
    07:00 -17°C° 0 mm 4 mps 760 mmHg 87%
    08:00 -17°C° 0 mm 4 mps 761 mmHg 88%
    09:00 -16°C° 0 mm 4 mps 761 mmHg 85%
    10:00 -15°C° 0 mm 4 mps 761 mmHg 83%
    11:00 -13°C° 0 mm 3 mps 761 mmHg 80%
    12:00 -13°C° 0 mm 3 mps 761 mmHg 79%
    13:00 -12°C° 0 mm 3 mps 761 mmHg 77%
    14:00 -10°C° 0 mm 3 mps 761 mmHg 76%
    15:00 -12°C° 0 mm 3 mps 761 mmHg 80%
    16:00 -12°C° 0 mm 2 mps 761 mmHg 84%
    17:00 -13°C° 0 mm 2 mps 761 mmHg 88%
    18:00 -13°C° 0 mm 2 mps 762 mmHg 89%
    19:00 -13°C° 0 mm 2 mps 762 mmHg 90%
    20:00 -11°C° 0 mm 1 mps 762 mmHg 91%
    21:00 -11°C° 0 mm 1 mps 763 mmHg 90%
    22:00 -11°C° 0 mm 1 mps 763 mmHg 90%
    23:00 -11°C° 0 mm 1 mps 763 mmHg 89%

    24 February, Sunday

    Time Temperature Precipitation Wind Pressure Humidity
    00:00 -11°C° 0 mm 1 mps 763 mmHg 88%
    01:00 -11°C° 0 mm 1 mps 763 mmHg 87%
    02:00 -11°C° 0 mm 1 mps 763 mmHg 86%
    03:00 -13°C° 0 mm 2 mps 763 mmHg 87%
    04:00 -13°C° 0 mm 2 mps 763 mmHg 87%
    05:00 -13°C° 0 mm 2 mps 762 mmHg 88%
    06:00 -13°C° 0 mm 2 mps 763 mmHg 88%
    07:00 -12°C° 0 mm 2 mps 763 mmHg 88%
    08:00 -10°C° 0 mm 2 mps 763 mmHg 88%
    09:00 -9°C° 0 mm 2 mps 763 mmHg 88%
    10:00 -7°C° 0 mm 2 mps 763 mmHg 88%
    11:00 -6°C° 0 mm 2 mps 763 mmHg 88%
    12:00 -6°C° 0 mm 2 mps 762 mmHg 88%
    13:00 -5°C° 0 mm 2 mps 762 mmHg 88%
    14:00 -5°C° 0 mm 3 mps 762 mmHg 88%
    15:00 -4°C° 0 mm 2 mps 761 mmHg 89%
    16:00 -4°C° 0 mm 2 mps 761 mmHg 90%
    17:00 -4°C° 0 mm 2 mps 761 mmHg 91%
    18:00 -4°C° 0 mm 2 mps 760 mmHg 92%
    19:00 -5°C° 0 mm 3 mps 760 mmHg 92%
    20:00 -5°C° 0 mm 3 mps 760 mmHg 93%
    21:00 -5°C° 0.1 mm 3 mps 759 mmHg 93%
    22:00 -5°C° 0.1 mm 3 mps 758 mmHg 93%
    23:00 -4°C° 0.1 mm 4 mps 758 mmHg 94%
    Show more